Location: Pitton
(51.0667°N, 1.7000°W)
Time: 08:23:47
(UTC+00:00)

Cosmos 2219 - Pass Details

Date: 17 September 2019
Orbit: 834 x 860 km, 71.1° (Epoch: 14 October)

Event Time Altitude Azimuth Distance (km) Brightness Sun altitude
Rises 19:15:39 0° 172° (S) 3,422 6.1 -9.9°
Reaches altitude 10° 19:18:23 10° 161° (SSE) 2,491 5.3 -10.3°
Maximum altitude 19:23:12 29° 104° (ESE) 1,545 4.0 -11.0°
Drops below altitude 10° 19:28:01 10° 47° (NE) 2,503 5.4 -11.7°
Sets 19:30:46 0° 37° (NE) 3,442 6.2 -12.1°
